Location: Unspecified
(49.2170°N, 0.0000°E)
Time: 20:28:53
(UTC+00:00)

Vanguard 3 - Pass Details

Date: 01 July 2019
Orbit: 507 x 3264 km, 33.4° (Epoch: 19 July)

Event Time Altitude Azimuth Distance (km) Brightness Sun altitude
Rises 11:49:51 0° 261° (W) 6,828 11.9 63.7°
Reaches altitude 10° 11:55:26 10° 254° (WSW) 5,466 11.6 63.8°
Maximum altitude 12:08:04 34° 198° (SSW) 2,874 11.1 63.9°
Drops below altitude 10° 12:16:06 10° 138° (SE) 3,445 10.8 63.8°
Sets 12:18:46 0° 128° (SE) 4,095 10.9 63.7°
